TimeAKST,TemperatureF,Dew PointF,Humidity,Sea Level PressureIn,VisibilityMPH,Wind Direction,Wind SpeedMPH,Gust SpeedMPH,PrecipitationIn,Events,Conditions,WindDirDegrees,DateUTC
12:54 AM,21.9,8.1,55,30.07,10.0,NW,8.1,-,N/A,,Overcast,320,2012-11-22 09:54:00
1:54 AM,21.9,9.0,58,30.07,10.0,NW,10.4,20.7,N/A,,Overcast,320,2012-11-22 10:54:00
2:54 AM,21.0,9.0,60,30.06,10.0,NW,12.7,-,N/A,,Overcast,310,2012-11-22 11:54:00
3:54 AM,21.0,9.0,60,30.05,10.0,WNW,11.5,19.6,N/A,,Overcast,300,2012-11-22 12:54:00
4:54 AM,21.0,10.0,63,30.03,10.0,WNW,13.8,-,N/A,,Overcast,300,2012-11-22 13:54:00
5:54 AM,19.9,10.0,65,30.01,10.0,NW,11.5,-,N/A,,Clear,310,2012-11-22 14:54:00
6:54 AM,19.0,10.0,68,29.98,10.0,WNW,10.4,-,N/A,,Clear,300,2012-11-22 15:54:00
7:54 AM,19.9,9.0,62,29.95,10.0,WNW,12.7,-,N/A,,Clear,300,2012-11-22 16:54:00
8:54 AM,19.0,10.0,68,29.92,10.0,WNW,16.1,-,N/A,,Clear,290,2012-11-22 17:54:00
9:54 AM,19.0,10.0,68,29.90,10.0,WNW,12.7,-,N/A,,Clear,290,2012-11-22 18:54:00
10:54 AM,21.0,9.0,60,29.88,10.0,NW,11.5,19.6,N/A,,Scattered Clouds,310,2012-11-22 19:54:00
11:54 AM,19.9,10.0,65,29.84,10.0,WNW,13.8,-,N/A,,Overcast,300,2012-11-22 20:54:00
12:54 PM,19.9,9.0,62,29.78,10.0,NW,13.8,-,N/A,,Overcast,320,2012-11-22 21:54:00
1:54 PM,23.0,9.0,55,29.75,10.0,WNW,13.8,-,N/A,,Overcast,300,2012-11-22 22:54:00
2:52 PM,19.4,12.2,74,29.74,1.8,WNW,15.0,-,0.00,Snow,Light Snow,300,2012-11-22 23:52:00
2:54 PM,19.9,12.9,74,29.75,1.2,WNW,17.3,-,0.00,Snow,Light Snow,300,2012-11-22 23:54:00
3:05 PM,19.4,15.8,86,29.74,0.8,WNW,16.1,-,0.00,Snow,Light Snow,300,2012-11-23 00:05:00
3:20 PM,19.4,15.8,86,29.73,0.8,WNW,15.0,-,0.00,Snow,Light Snow,300,2012-11-23 00:20:00
3:33 PM,19.4,15.8,86,29.73,0.8,NW,13.8,-,0.00,Snow,Light Snow,310,2012-11-23 00:33:00
3:54 PM,19.9,17.1,89,29.75,0.5,NW,11.5,-,0.01,Fog-Snow,Snow,310,2012-11-23 00:54:00
4:31 PM,19.4,17.6,93,29.73,0.2,WNW,12.7,-,0.03,Fog-Snow,Heavy Snow,300,2012-11-23 01:31:00
4:54 PM,19.9,17.1,89,29.74,0.5,WNW,10.4,-,0.05,Fog-Snow,Snow,290,2012-11-23 01:54:00
5:08 PM,19.4,17.6,93,29.73,0.5,WNW,9.2,-,0.01,Fog-Snow,Snow,300,2012-11-23 02:08:00
5:46 PM,21.2,17.6,86,29.72,1.2,WNW,11.5,-,0.04,Snow,Light Snow,300,2012-11-23 02:46:00
5:54 PM,21.0,17.1,85,29.73,1.5,WNW,10.4,-,0.04,Snow,Light Snow,300,2012-11-23 02:54:00
6:01 PM,21.2,17.6,86,29.72,1.8,WNW,12.7,-,0.00,Snow,Light Snow,300,2012-11-23 03:01:00
6:09 PM,21.2,17.6,86,29.71,2.5,NW,12.7,19.6,0.00,Snow,Light Snow,320,2012-11-23 03:09:00
6:20 PM,21.2,17.6,86,29.71,3.0,NW,11.5,-,0.00,Snow,Light Snow,310,2012-11-23 03:20:00
6:54 PM,21.0,17.1,85,29.70,3.0,NW,13.8,18.4,0.00,Snow,Light Snow,320,2012-11-23 03:54:00
7:54 PM,21.0,17.1,85,29.68,6.0,NW,15.0,23.0,0.00,Snow,Light Snow,310,2012-11-23 04:54:00
8:54 PM,21.0,17.1,85,29.66,10.0,NW,16.1,-,0.00,,Overcast,310,2012-11-23 05:54:00
9:54 PM,21.9,17.1,82,29.65,10.0,NW,15.0,21.9,0.00,,Overcast,320,2012-11-23 06:54:00
10:54 PM,23.0,16.0,74,29.66,9.0,NW,12.7,-,0.00,,Overcast,320,2012-11-23 07:54:00
11:20 PM,23.0,17.6,80,29.65,2.5,NW,12.7,19.6,0.00,Snow,Light Snow,320,2012-11-23 08:20:00
11:29 PM,23.0,17.6,80,29.64,4.0,NW,16.1,23.0,0.00,Snow,Light Snow,320,2012-11-23 08:29:00
11:39 PM,23.0,17.6,80,29.65,3.0,NW,13.8,-,0.00,Snow,Light Snow,310,2012-11-23 08:39:00
11:54 PM,23.0,17.1,78,29.66,4.0,NW,13.8,20.7,0.00,Snow,Light Snow,310,2012-11-23 08:54:00